When you browse on this site, cookies collect data to enhance your experience and personalize the content and advertising you see.
Visit our Privacy Policy to learn more. By continuing to use the site, you agree to this use of cookies and data.
  • In Hungary
  • List of Countries
  • For 7 days
  • Water Temperature
  • Satellite Maps
  • Weather Map
  • News
  • Weather Widgets
  • user-avatar
    Login

    Hourly Weather Kaparzow

    Today, 10 December, Monday

    Time Temperature Precipitation Wind Pressure Humidity
    00:00 +3°C° 0.2 mm 5 mps 729 mmHg 83%
    01:00 +3°C° 0 mm 5 mps 729 mmHg 85%
    02:00 +3°C° 0.4 mm 6 mps 729 mmHg 83%
    03:00 +3°C° 0.4 mm 6 mps 729 mmHg 81%
    04:00 +3°C° 0.4 mm 7 mps 729 mmHg 79%
    05:00 +3°C° 0.4 mm 7 mps 730 mmHg 79%
    06:00 +3°C° 0.4 mm 7 mps 730 mmHg 78%
    07:00 +2°C° 0.4 mm 7 mps 731 mmHg 78%
    08:00 +2°C° 0.2 mm 7 mps 731 mmHg 76%
    09:00 +1°C° 0.2 mm 8 mps 732 mmHg 75%
    10:00 +1°C° 0.2 mm 8 mps 733 mmHg 73%
    11:00 +1°C° 0.1 mm 8 mps 733 mmHg 71%
    12:00 +2°C° 0.1 mm 7 mps 733 mmHg 69%
    13:00 +2°C° 0.1 mm 7 mps 734 mmHg 66%
    14:00 +2°C° 0.1 mm 6 mps 734 mmHg 69%
    15:00 +2°C° 0.1 mm 5 mps 735 mmHg 71%
    16:00 +1°C° 0.1 mm 5 mps 735 mmHg 74%
    17:00 +1°C° 0.1 mm 5 mps 735 mmHg 75%
    18:00 0°C° 0.1 mm 5 mps 735 mmHg 77%
    19:00 0°C° 0.1 mm 5 mps 736 mmHg 79%
    20:00 0°C° 0.1 mm 5 mps 736 mmHg 80%
    21:00 0°C° 0.1 mm 5 mps 736 mmHg 81%
    22:00 -1°C° 0.1 mm 5 mps 736 mmHg 83%
    23:00 -1°C° 0.1 mm 4 mps 736 mmHg 83%

    Tomorrow, 11 December, Tuesday

    Time Temperature Precipitation Wind Pressure Humidity
    00:00 -1°C° 0.1 mm 4 mps 736 mmHg 84%
    01:00 -1°C° 0.1 mm 4 mps 736 mmHg 85%
    02:00 -1°C° 0.1 mm 4 mps 736 mmHg 86%
    03:00 -1°C° 0.1 mm 4 mps 736 mmHg 87%
    04:00 -1°C° 0.1 mm 4 mps 736 mmHg 87%
    05:00 -1°C° 0 mm 4 mps 736 mmHg 87%
    06:00 -1°C° 0 mm 4 mps 736 mmHg 87%
    07:00 -1°C° 0 mm 4 mps 736 mmHg 87%
    08:00 -1°C° 0.1 mm 4 mps 736 mmHg 87%
    09:00 0°C° 0.1 mm 4 mps 736 mmHg 86%
    10:00 0°C° 0.1 mm 4 mps 736 mmHg 85%
    11:00 0°C° 0.3 mm 4 mps 736 mmHg 85%
    12:00 0°C° 0.3 mm 4 mps 736 mmHg 85%
    13:00 0°C° 0.3 mm 4 mps 736 mmHg 85%
    14:00 +1°C° 0.2 mm 3 mps 736 mmHg 87%
    15:00 +1°C° 0.2 mm 3 mps 736 mmHg 88%
    16:00 +2°C° 0.2 mm 2 mps 736 mmHg 89%
    17:00 +2°C° 0.2 mm 2 mps 737 mmHg 90%
    18:00 +2°C° 0.2 mm 2 mps 737 mmHg 91%
    19:00 +2°C° 0.2 mm 2 mps 737 mmHg 92%
    20:00 +2°C° 0.2 mm 2 mps 737 mmHg 93%
    21:00 +1°C° 0.2 mm 2 mps 737 mmHg 94%
    22:00 +2°C° 0.2 mm 1 mps 738 mmHg 95%
    23:00 +2°C° 0.1 mm 1 mps 738 mmHg 95%

    Day after tomorrow, 12 December, Wednesday

    Time Temperature Precipitation Wind Pressure Humidity
    00:00 +2°C° 0.1 mm 1 mps 738 mmHg 95%
    01:00 +2°C° 0.1 mm 1 mps 739 mmHg 96%
    02:00 +2°C° 0.1 mm 1 mps 739 mmHg 96%
    03:00 +2°C° 0.1 mm 1 mps 739 mmHg 96%
    04:00 +1°C° 0.1 mm 1 mps 739 mmHg 96%
    05:00 +1°C° 0.1 mm 1 mps 740 mmHg 96%
    06:00 -1°C° 0.1 mm 2 mps 740 mmHg 95%
    07:00 -1°C° 0.1 mm 2 mps 741 mmHg 95%
    08:00 -1°C° 0.1 mm 2 mps 741 mmHg 94%
    09:00 -1°C° 0.1 mm 2 mps 741 mmHg 94%
    10:00 +1°C° 0.1 mm 2 mps 742 mmHg 93%
    11:00 +1°C° 0.1 mm 2 mps 742 mmHg 92%
    12:00 +1°C° 0.1 mm 2 mps 742 mmHg 91%
    13:00 +2°C° 0.1 mm 1 mps 742 mmHg 90%
    14:00 +1°C° 0 mm 2 mps 742 mmHg 90%
    15:00 +1°C° 0 mm 2 mps 743 mmHg 91%
    16:00 -1°C° 0 mm 2 mps 743 mmHg 91%
    17:00 -1°C° 0 mm 2 mps 743 mmHg 91%
    18:00 -1°C° 0 mm 2 mps 743 mmHg 91%
    19:00 -1°C° 0 mm 2 mps 743 mmHg 90%
    20:00 0°C° 0 mm 1 mps 744 mmHg 91%
    21:00 0°C° 0 mm 1 mps 744 mmHg 91%
    22:00 0°C° 0 mm 1 mps 744 mmHg 91%
    23:00 0°C° 0 mm 1 mps 744 mmHg 91%

    13 December, Thursday

    Time Temperature Precipitation Wind Pressure Humidity
    00:00 -1°C° 0 mm 1 mps 744 mmHg 91%
    01:00 -1°C° 0 mm 1 mps 744 mmHg 92%
    02:00 -1°C° 0 mm 1 mps 744 mmHg 92%
    03:00 -1°C° 0 mm 1 mps 744 mmHg 92%
    04:00 -1°C° 0 mm 1 mps 744 mmHg 92%
    05:00 -1°C° 0 mm 1 mps 744 mmHg 92%
    06:00 -1°C° 0 mm 1 mps 744 mmHg 92%
    07:00 -3°C° 0 mm 2 mps 744 mmHg 92%
    08:00 -3°C° 0 mm 2 mps 744 mmHg 91%
    09:00 -2°C° 0 mm 2 mps 744 mmHg 89%
    10:00 -2°C° 0 mm 2 mps 744 mmHg 87%
    11:00 -1°C° 0 mm 2 mps 743 mmHg 86%
    12:00 -1°C° 0 mm 2 mps 743 mmHg 85%
    13:00 -1°C° 0 mm 2 mps 743 mmHg 84%
    14:00 -1°C° 0 mm 2 mps 743 mmHg 85%
    15:00 -1°C° 0 mm 2 mps 743 mmHg 86%
    16:00 -1°C° 0 mm 2 mps 743 mmHg 87%
    17:00 -2°C° 0 mm 2 mps 743 mmHg 88%
    18:00 -2°C° 0 mm 2 mps 744 mmHg 89%
    19:00 -2°C° 0 mm 2 mps 744 mmHg 89%
    20:00 0°C° 0 mm 1 mps 744 mmHg 90%
    21:00 0°C° 0 mm 1 mps 744 mmHg 90%
    22:00 0°C° 0 mm 1 mps 745 mmHg 91%
    23:00 0°C° 0 mm 1 mps 745 mmHg 91%

    14 December, Friday

    Time Temperature Precipitation Wind Pressure Humidity
    00:00 0°C° 0 mm 1 mps 745 mmHg 92%
    01:00 0°C° 0 mm 1 mps 745 mmHg 92%
    02:00 0°C° 0 mm 1 mps 745 mmHg 93%
    03:00 -1°C° 0 mm 1 mps 745 mmHg 93%
    04:00 -1°C° 0 mm 1 mps 745 mmHg 93%
    05:00 -1°C° 0 mm 1 mps 746 mmHg 93%
    06:00 -1°C° 0 mm 1 mps 746 mmHg 93%
    07:00 -1°C° 0 mm 1 mps 747 mmHg 93%
    08:00 0°C° 0 mm 1 mps 747 mmHg 91%
    09:00 0°C° 0 mm 1 mps 747 mmHg 89%
    10:00 +1°C° 0 mm 1 mps 748 mmHg 87%
    11:00 +1°C° 0 mm 1 mps 748 mmHg 85%
    12:00 +1°C° 0 mm 1 mps 748 mmHg 84%
    13:00 +2°C° 0 mm 1 mps 748 mmHg 82%
    14:00 +1°C° 0 mm 1 mps 749 mmHg 84%
    15:00 +1°C° 0 mm 1 mps 749 mmHg 86%
    16:00 0°C° 0 mm 1 mps 749 mmHg 88%
    17:00 -2°C° 0 mm 2 mps 750 mmHg 88%
    18:00 -2°C° 0 mm 2 mps 750 mmHg 88%
    19:00 -2°C° 0 mm 2 mps 750 mmHg 87%
    20:00 -2°C° 0 mm 2 mps 751 mmHg 87%
    21:00 -2°C° 0 mm 2 mps 751 mmHg 86%
    22:00 -2°C° 0 mm 2 mps 751 mmHg 86%
    23:00 -2°C° 0 mm 2 mps 751 mmHg 86%

    15 December, Saturday

    Time Temperature Precipitation Wind Pressure Humidity
    00:00 -2°C° 0 mm 2 mps 751 mmHg 87%
    01:00 0°C° 0 mm 1 mps 752 mmHg 87%
    02:00 -2°C° 0 mm 2 mps 752 mmHg 87%
    03:00 -2°C° 0 mm 2 mps 752 mmHg 88%
    04:00 -2°C° 0 mm 2 mps 752 mmHg 88%
    05:00 -3°C° 0 mm 2 mps 752 mmHg 89%
    06:00 -3°C° 0 mm 2 mps 752 mmHg 89%
    07:00 -3°C° 0 mm 2 mps 753 mmHg 89%
    08:00 -2°C° 0 mm 2 mps 753 mmHg 88%
    09:00 -2°C° 0 mm 2 mps 753 mmHg 87%
    10:00 -2°C° 0 mm 3 mps 753 mmHg 85%
    11:00 -1°C° 0 mm 3 mps 753 mmHg 84%
    12:00 -1°C° 0 mm 3 mps 753 mmHg 82%
    13:00 -1°C° 0 mm 3 mps 753 mmHg 81%
    14:00 -1°C° 0 mm 3 mps 753 mmHg 82%
    15:00 -2°C° 0 mm 3 mps 753 mmHg 84%
    16:00 -2°C° 0 mm 2 mps 754 mmHg 85%
    17:00 -2°C° 0 mm 3 mps 754 mmHg 86%
    18:00 -2°C° 0 mm 3 mps 754 mmHg 86%
    19:00 -4°C° 0 mm 3 mps 754 mmHg 87%
    20:00 -4°C° 0 mm 3 mps 754 mmHg 87%
    21:00 -4°C° 0 mm 3 mps 755 mmHg 88%
    22:00 -4°C° 0 mm 3 mps 755 mmHg 88%
    23:00 -4°C° 0 mm 3 mps 755 mmHg 88%
    Show more